Waarnemingen

Advertentie
Mijn weer
Ile Rousse, Frankrijk (7753): temperatuur & dauwpunt: 13.07.2018 21:00:00 - 19.07.2018 21:00:00 (CEST)Ile Rousse, Frankrijk (7753): windsnelheid & windstoten: 13.07.2018 21:00:00 - 19.07.2018 21:00:00 (CEST)Ile Rousse, Frankrijk (7753): windrichting: 13.07.2018 21:00:00 - 19.07.2018 21:00:00 (CEST)Ile Rousse, Frankrijk (7753): luchtdruk: 13.07.2018 21:00:00 - 19.07.2018 21:00:00 (CEST)Ile Rousse, Frankrijk (7753): zicht: 13.07.2018 21:00:00 - 19.07.2018 21:00:00 (CEST)Ile Rousse, Frankrijk (7753): neerslag: 13.07.2018 21:00:00 - 19.07.2018 21:00:00 (CEST)
Datum & Tijd tt [°C] td [°C] ff [km/u] ff [kn] fx [km/u] fx [kn] dd ppp [hPa] vv [km] rr [mm]
19.07.2018 21:00:00 23,9 21,4 16 9 29 16 WZW 1013,9 - 0,0
19.07.2018 20:00:00 25,2 21,5 18 10 34 19 W 1013,6 25 0,0
19.07.2018 19:00:00 26,4 20,7 21 11 39 21 W 1013,2 - 0,0
19.07.2018 18:00:00 26,8 20,4 27 14 42 23 W 1013,3 - 0,0
19.07.2018 17:00:00 27,6 20,4 23 13 35 19 W 1013,6 - 0,0
19.07.2018 16:00:00 27,7 20,5 22 12 40 22 W 1014,0 - 0,0
19.07.2018 15:00:00 26,8 21,6 23 12 36 19 W 1014,0 - 0,0
19.07.2018 14:00:00 26,5 21,9 21 11 39 21 W 1014,1 18 0,0
19.07.2018 13:00:00 26,5 22,1 24 13 39 21 WZW 1014,1 - 0,0
19.07.2018 12:00:00 26,2 21,6 21 11 34 19 W 1014,1 - 0,0
19.07.2018 11:00:00 25,3 21,4 20 11 30 16 W 1014,0 - 0,0
19.07.2018 10:00:00 24,6 19,9 13 7 24 13 W 1013,6 - 0,0
19.07.2018 09:00:00 25,3 17,5 14 8 19 11 N 1013,4 - 0,0
19.07.2018 08:00:00 26,5 10,2 0 0 8 5 N 1012,7 15 0,0
19.07.2018 07:00:00 24,9 11,1 5 3 10 6 WZW 1013,0 - 0,0
19.07.2018 06:00:00 26,3 10,0 5 3 15 8 ZZO 1012,8 - 0,0
19.07.2018 05:00:00 25,7 10,7 9 5 12 7 ZZO 1012,9 - 0,0
19.07.2018 04:00:00 25,7 11,1 7 4 11 6 ZW 1013,4 - 0,0
19.07.2018 03:00:00 23,1 19,3 7 4 11 6 O 1014,0 - 0,0
19.07.2018 02:00:00 23,5 19,2 6 3 18 10 OZO 1014,3 - 0,0
19.07.2018 01:00:00 23,4 18,1 7 4 13 7 WZW 1014,7 - 0,0
19.07.2018 00:00:00 23,7 20,6 5 3 16 9 WNW 1014,5 - 0,0
18.07.2018 23:00:00 23,7 19,8 7 4 12 6 ZW 1014,0 - 0,0
18.07.2018 22:00:00 23,9 20,4 5 3 9 5 ZO 1013,8 - 0,0
18.07.2018 21:00:00 24,5 21,0 6 3 15 8 OZO 1013,3 - 0,0
18.07.2018 20:00:00 26,0 20,8 11 6 15 8 W 1013,6 - 0,0
18.07.2018 19:00:00 27,1 20,4 6 3 16 9 NNO 1013,6 - 0,0
18.07.2018 18:00:00 27,2 20,5 9 5 22 12 N 1013,8 - 0,0
18.07.2018 17:00:00 27,7 19,8 9 5 20 11 N 1014,5 - 0,0
18.07.2018 16:00:00 26,9 20,3 10 6 21 11 NNW 1014,7 - 0,0
18.07.2018 15:00:00 26,8 20,2 10 6 21 11 N 1014,8 - 0,0
18.07.2018 14:00:00 26,2 21,0 12 7 22 12 NNW 1015,2 15 0,0
18.07.2018 13:00:00 25,3 21,2 13 7 22 12 NNO 1015,1 - 0,0
18.07.2018 12:00:00 25,1 21,4 13 7 24 13 N 1015,3 - 0,0
18.07.2018 11:00:00 24,7 20,8 16 9 26 14 NNO 1014,9 - 0,0
18.07.2018 10:00:00 24,4 19,5 11 6 18 10 N 1014,9 - 0,0
18.07.2018 09:00:00 22,7 18,5 11 6 16 8 W 1014,8 - 0,0
18.07.2018 08:00:00 22,4 20,5 5 3 9 5 W 1014,4 20 0,0
18.07.2018 07:00:00 22,8 20,3 3 2 21 12 O 1013,9 - 0,0
18.07.2018 06:00:00 21,6 19,2 17 9 21 11 WZW 1014,1 - 0,0
18.07.2018 05:00:00 22,3 18,3 5 3 8 4 O 1013,6 20 0,0
18.07.2018 04:00:00 22,4 18,4 3 1 6 4 NNO 1013,9 - 0,0
18.07.2018 03:00:00 22,3 19,5 7 4 11 6 W 1014,2 - 0,0
18.07.2018 02:00:00 22,6 19,0 4 2 17 9 O 1014,3 - 0,0
18.07.2018 01:00:00 23,1 19,1 16 9 21 11 O 1014,0 - 0,0
18.07.2018 00:00:00 23,0 19,2 11 6 13 7 O 1013,9 - 0,0
17.07.2018 23:00:00 23,1 19,3 9 5 16 9 O 1013,7 - 0,0
17.07.2018 22:00:00 23,3 19,5 14 8 26 14 WZW 1013,7 - 0,0
17.07.2018 21:00:00 24,0 19,5 19 10 35 19 WZW 1013,1 - 0,0
17.07.2018 20:00:00 25,2 18,9 22 12 34 18 W 1012,5 20 0,0
17.07.2018 19:00:00 26,3 20,8 21 11 34 18 WZW 1012,3 - 0,0
17.07.2018 18:00:00 26,2 21,0 22 12 33 18 W 1012,5 - 0,0
17.07.2018 17:00:00 26,6 21,1 22 12 38 21 W 1012,8 20 0,0
17.07.2018 16:00:00 26,2 20,8 25 14 49 26 W 1012,8 - 0,0
17.07.2018 15:00:00 26,1 20,0 29 15 42 23 W 1012,6 - 0,0
17.07.2018 14:00:00 26,3 19,4 25 13 40 21 W 1012,7 20 0,0
17.07.2018 13:00:00 25,6 18,8 24 13 36 19 W 1012,6 - 0,0
17.07.2018 12:00:00 25,0 18,7 23 12 36 19 W 1012,4 - 0,0
17.07.2018 11:00:00 24,6 19,0 22 12 32 17 W 1012,2 20 0,0
17.07.2018 10:00:00 23,8 17,3 11 6 20 11 W 1012,1 - 0,0
17.07.2018 09:00:00 23,1 15,9 5 3 11 6 WNW 1011,9 - 0,0
17.07.2018 08:00:00 23,2 14,5 6 3 11 6 NO 1011,4 20 0,0
17.07.2018 07:00:00 22,5 14,3 6 3 21 11 O 1011,4 - 0,0
17.07.2018 06:00:00 21,6 13,0 14 7 27 14 WZW 1011,2 - 0,0
17.07.2018 05:00:00 21,2 14,8 18 10 44 24 WZW 1010,9 - 0,0
17.07.2018 04:00:00 21,0 16,0 28 15 52 28 ZW 1010,6 - 0,0
17.07.2018 03:00:00 21,1 16,3 33 18 52 28 WZW 1010,5 - 0,0
17.07.2018 02:00:00 21,4 16,1 26 14 50 27 WZW 1010,8 - 0,0
17.07.2018 01:00:00 21,5 18,1 26 14 61 33 WZW 1010,5 - 0,0
17.07.2018 00:00:00 22,4 15,7 39 21 66 36 ZZW 1009,1 - 0,0
16.07.2018 23:00:00 23,6 14,6 35 19 74 40 ZZW 1008,5 - 0,0
16.07.2018 22:00:00 23,6 16,9 35 19 66 35 ZW 1008,6 - 0,0
16.07.2018 21:00:00 24,9 17,1 44 24 77 42 ZW 1007,4 - 0,0
16.07.2018 20:00:00 27,3 16,9 36 19 61 33 WZW 1006,6 10 0,0
16.07.2018 19:00:00 27,3 21,6 34 18 54 29 WZW 1006,8 - 0,0
16.07.2018 18:00:00 29,7 18,2 29 16 80 43 WZW 1007,3 - 0,0
16.07.2018 17:00:00 30,1 17,5 49 26 83 45 ZW 1007,2 14 0,0
16.07.2018 16:00:00 29,2 20,6 14 8 32 18 WZW 1008,8 - 0,0
16.07.2018 15:00:00 29,0 20,4 12 7 23 13 WNW 1008,2 - 0,0
16.07.2018 14:00:00 27,5 17,9 12 6 27 15 NO 1008,6 16 0,0
16.07.2018 13:00:00 26,4 19,3 16 9 28 15 NO 1009,5 - 0,0
16.07.2018 12:00:00 26,4 20,5 20 11 29 15 ONO 1010,1 - 0,0
16.07.2018 11:00:00 24,7 22,2 15 8 21 11 ONO 1011,3 16 0,0
16.07.2018 10:00:00 24,7 21,2 9 5 23 12 N 1011,8 - 0,0
16.07.2018 09:00:00 24,3 19,6 14 7 30 16 OZO 1011,4 - 0,0
16.07.2018 08:00:00 24,2 20,1 6 4 14 7 O 1012,4 - 0,0
16.07.2018 07:00:00 23,6 20,9 8 4 10 6 ONO 1012,2 - 0,0
16.07.2018 06:00:00 23,4 20,0 5 3 15 8 ZO 1012,7 - 0,0
16.07.2018 05:00:00 23,1 20,2 8 5 13 7 ZZO 1012,9 - 0,0
16.07.2018 04:00:00 23,4 21,1 3 2 17 9 Z 1013,6 - 0,0
16.07.2018 03:00:00 23,4 20,9 12 7 26 14 WNW 1013,8 - 0,0
16.07.2018 02:00:00 23,4 18,7 17 9 22 12 WZW 1013,3 - 0,0
16.07.2018 01:00:00 26,1 15,5 8 4 18 10 OZO 1012,9 - 0,0
16.07.2018 00:00:00 24,0 18,9 17 9 21 11 O 1013,0 - 0,0
15.07.2018 23:00:00 23,9 20,2 14 7 19 11 O 1013,6 - 0,0
15.07.2018 22:00:00 24,5 19,8 16 8 25 14 ONO 1013,3 - 0,0
15.07.2018 21:00:00 24,8 20,5 15 8 45 24 WZW 1012,6 - 0,0
15.07.2018 20:00:00 26,3 19,4 26 14 51 28 WZW 1012,3 - 0,0
15.07.2018 19:00:00 26,9 20,7 27 15 59 32 WZW 1012,3 - 0,0
15.07.2018 18:00:00 27,4 19,7 31 17 60 32 WZW 1012,7 - 0,0
15.07.2018 17:00:00 27,4 22,8 26 14 52 28 WZW 1013,4 9 0,0
15.07.2018 16:00:00 27,0 22,8 18 10 42 23 W 1014,0 - 0,0
15.07.2018 15:00:00 27,8 23,0 26 14 40 21 W 1013,9 - 0,0
15.07.2018 14:00:00 26,8 22,8 18 10 28 15 W 1014,2 10 0,0
15.07.2018 13:00:00 26,5 23,0 22 12 34 18 W 1014,2 - 0,0
15.07.2018 12:00:00 25,6 22,7 24 13 36 20 W 1014,5 - 0,0
15.07.2018 11:00:00 24,4 22,3 18 10 35 19 W 1014,8 - 0,0
15.07.2018 10:00:00 24,6 22,5 16 9 23 13 W 1014,4 - 0,0
15.07.2018 09:00:00 24,0 22,1 13 7 22 12 W 1014,8 - 0,0
15.07.2018 08:00:00 23,8 21,1 8 5 17 9 W 1014,5 - 0,0
15.07.2018 07:00:00 23,0 21,8 9 5 16 9 W 1014,0 - 0,0
15.07.2018 06:00:00 23,1 21,5 13 7 21 11 WZW 1013,7 - 0,0
15.07.2018 05:00:00 22,9 21,7 15 8 24 13 WZW 1013,7 15 0,0
15.07.2018 04:00:00 23,2 21,3 5 3 10 6 W 1013,6 - 0,0
15.07.2018 03:00:00 24,0 20,5 4 2 8 4 WNW 1013,5 - 0,0
15.07.2018 02:00:00 23,9 20,6 4 2 6 4 NNO 1013,7 - 0,0
15.07.2018 01:00:00 22,9 20,8 2 1 6 3 WZW 1014,0 - 0,0
15.07.2018 00:00:00 23,6 21,5 4 2 5 3 WZW 1014,2 - 0,0
14.07.2018 23:00:00 23,5 20,4 5 3 10 5 NNW 1014,4 - 0,0
14.07.2018 22:00:00 23,6 22,2 3 2 16 9 WZW 1014,4 - 0,0
14.07.2018 21:00:00 24,1 22,0 11 6 24 13 W 1013,3 - 0,0
14.07.2018 20:00:00 25,1 22,6 19 10 44 24 W 1013,1 20 0,0
14.07.2018 19:00:00 26,3 22,4 25 14 52 28 W 1012,8 - 0,0
14.07.2018 18:00:00 27,5 21,8 32 18 58 31 WZW 1013,0 - 0,0
14.07.2018 17:00:00 30,0 20,0 31 17 52 28 WZW 1012,6 20 0,0
14.07.2018 16:00:00 32,0 16,7 11 6 22 12 NNO 1012,5 - 0,0
14.07.2018 15:00:00 31,1 14,7 17 9 34 19 ONO 1013,0 - 0,0
14.07.2018 14:00:00 28,4 16,7 20 11 37 20 ONO 1013,6 - 0,0
14.07.2018 13:00:00 27,7 17,5 18 10 30 16 NO 1014,2 - 0,0
14.07.2018 12:00:00 28,1 18,2 17 9 27 14 ONO 1014,2 - 0,0
14.07.2018 11:00:00 26,0 19,6 20 11 31 17 NO 1014,9 - 0,0
14.07.2018 10:00:00 25,7 20,9 21 11 27 15 ONO 1015,6 - 0,0
14.07.2018 09:00:00 24,7 19,5 21 12 27 15 O 1016,1 - 0,0
14.07.2018 08:00:00 23,5 20,2 16 9 22 12 ONO 1016,2 15 0,0
14.07.2018 07:00:00 22,8 18,1 14 7 18 10 OZO 1016,3 - 0,0
14.07.2018 06:00:00 23,0 17,9 8 4 14 8 N 1016,2 - 0,0
14.07.2018 05:00:00 23,1 17,3 5 3 11 6 N 1016,5 - 0,0
14.07.2018 04:00:00 24,8 13,7 4 2 9 5 W 1016,2 - 0,0
14.07.2018 03:00:00 24,8 14,6 8 4 9 5 OZO 1016,1 - 0,0
14.07.2018 02:00:00 23,6 15,1 9 5 11 6 O 1016,5 - 0,0
14.07.2018 01:00:00 23,2 19,1 3 2 6 3 ZO 1016,6 - 0,0
14.07.2018 00:00:00 23,6 19,1 4 2 10 5 NO 1016,7 - 0,0
13.07.2018 23:00:00 23,4 19,3 13 7 18 10 O 1016,8 - 0,0
13.07.2018 22:00:00 23,6 20,1 15 8 18 10 O 1016,3 - 0,0
13.07.2018 21:00:00 24,0 20,5 4 2 10 5 NNO 1016,1 - 0,0

tt = temperatuur
td = dauwpunt
ff = windsnelheid
fx = windstoten
dd = windrichting
ppp = luchtdruk
vv = zicht
rr = neerslag

Weerstations in de omgeving